Flag for Turkey Weather past 2 weeks in Konya, Turkey

Now
54 °F

Passing clouds.


Feels Like: 53 °F
Forecast: 52 / 61 °F
Wind: 5 mph from Southeast

Location: Konya Airport

Current Time: May 28, 2015 at 3:51:09 AM

Latest Report: May 28, 2015 at 2:50 AM


Visibility: N/A

Pressure: 29.80 "Hg

Humidity: 77%

Dew point: 46 °F

Location of KonyaLocation

Historic Weather in Konya — Graph

°F

Konya temperature yesterday

Maximum temperature yesterday: 81 °F (at 3:01 PM)
Minimum temperature yesterday: 59 °F (at 5:50 AM)
Average temperature yesterday: 67 °F

Past Weeks' High & Low Weather Summary

 TemperatureHumidityPressure
High86 °F (May 20, 12:50 PM)88% (May 22, 5:50 AM)30.30 "Hg (May 22, 5:50 AM)
Low39 °F (May 15, 5:50 AM)11% (May 20, 2:50 PM)29.68 "Hg (May 27, 3:50 PM)
Average65 °F46%29.99 "Hg
* Reported May 13 2:50 AM — May 28 2:50 AM, Konya, Weather by CustomWeather, © 2015

Note: Actual official high and low records may vary slightly from our data, if they occured in-between our weather recording intervals... More about our weather records

Advertising

Konya weather history for previous 24 hours

 ConditionsComfort  
Time TempWeatherWind HumidityBarometerVisibility
2:50 AM
Thu, May 28
54 °FPassing clouds.5 mph77%29.80 "HgN/A
1:50 AM59 °FPassing clouds.8 mph63%29.80 "HgN/A
12:50 AM61 °FPassing clouds.10 mph59%29.80 "HgN/A
11:50 PM
Wed, May 27
61 °FPassing clouds.14 mph52%29.80 "HgN/A
10:50 PM59 °FPassing clouds.7 mph68%29.77 "HgN/A
9:50 PM66 °FPassing clouds.8 mph43%29.74 "HgN/A
8:50 PM68 °FPassing clouds.16 mph40%29.71 "Hg5 mi
7:50 PM70 °FPassing clouds.17 mph35%29.71 "HgN/A
6:50 PM73 °FPassing clouds.16 mph27%29.71 "HgN/A
5:50 PM75 °FPassing clouds.21 mph22%29.68 "HgN/A
4:50 PM79 °FSunny.23 mph20%29.68 "Hg10 mi
3:50 PM81 °FSunny.25 mph17%29.68 "Hg10 mi
3:01 PM81 °FScattered clouds.23 mph18%29.71 "HgN/A
1:50 PM75 °FPassing clouds.3 mph44%29.74 "HgN/A
12:50 PM72 °FScattered clouds.7 mph50%29.80 "HgN/A
11:50 AM66 °FBroken clouds.7 mph68%29.83 "HgN/A
10:50 AM63 °FBroken clouds.5 mph73%29.86 "HgN/A
9:50 AM61 °FThunderstorms. Broken clouds.7 mph83%29.89 "HgN/A
8:50 AM61 °FBroken clouds.6 mph83%29.92 "HgN/A
7:50 AM61 °FBroken clouds.6 mph77%29.89 "HgN/A
7:03 AM59 °FSprinkles. Broken clouds.5 mph82%29.89 "HgN/A
5:50 AM59 °FSprinkles. Partly cloudy.3 mph77%29.92 "HgN/A
4:50 AM64 °FSprinkles. Partly cloudy.9 mph52%29.89 "HgN/A
3:50 AM64 °FPartly cloudy.6 mph46%29.89 "HgN/A
Weather by CustomWeather, © 2015

See weather overviewHow to use our weather pages